Location: Pardubice
(50.0330°N, 15.7830°E)
Time: 06:42:14
(UTC+01:00)

Tiros 1 - Visible Passes

Search period start: 16 March 2026 00:00
Search period end: 26 March 2026 00:00
Orbit: 618 x 650 km, 48.4° (Epoch: 15 March)

Date Brightness Start Highest point End Pass type
(mag) Time Alt. Az. Time Alt. Az. Time Alt. Az.
16 Mar 8.4 03:36:40 28° SSE 03:36:40 28° SSE 03:39:10 10° SE visible
16 Mar 8.9 05:14:04 12° WSW 05:15:49 14° SW 05:18:13 10° S visible
17 Mar 8.7 03:57:51 22° S 03:57:51 22° S 04:00:04 10° SSE visible
18 Mar 9.1 04:19:15 13° SSW 04:19:15 13° SSW 04:20:15 10° S visible
21 Mar 8.9 19:31:45 10° S 19:33:47 14° SE 19:33:47 14° SE visible
21 Mar 9.6 21:10:56 10° SW 21:11:14 12° SW 21:11:14 12° SW visible
22 Mar 8.3 19:51:39 10° SSW 19:55:23 25° SSE 19:55:23 25° SSE visible
22 Mar 9.6 21:32:12 10° WSW 21:32:49 14° WSW 21:32:49 14° WSW visible
23 Mar 7.6 20:12:24 10° SW 20:16:46 39° SSE 20:16:46 39° SSE visible
23 Mar 9.7 21:53:40 10° WSW 21:54:12 13° WSW 21:54:12 13° WSW visible
24 Mar 8.5 18:53:20 10° SSW 18:56:54 21° SE 19:00:28 10° E visible
24 Mar 7.3 20:33:34 10° WSW 20:37:57 54° S 20:37:57 54° S visible
24 Mar 9.9 22:15:12 10° W 22:15:23 11° W 22:15:23 11° W visible
25 Mar 7.9 19:13:54 10° SW 19:18:09 34° SSE 19:21:36 14° E visible
25 Mar 7.4 20:54:58 10° WSW 20:59:00 59° SW 20:59:00 59° SW visible
